Hayward, WI

1:10 AM CDT on July 25, 2017 (GMT -0500)
Sawyer County

Weather History for KHYR - August, 2013

Change the Weather History Date:

Friday, August 2, 2013

  Actual Average Record
Temperature  
Mean Temperature 60 °F -  
Max Temperature 77 °F 78 °F 95 °F (2005)
Min Temperature 44 °F 48 °F 39 °F (1973)
Degree Days  
Heating Degree Days 6    
Growing Degree Days 10 (Base 50)    
Moisture  
Dew Point 49 °F    
Average Humidity 85    
Maximum Humidity 100    
Minimum Humidity 38    
Precipitation  
Precipitation 0.00 in - - ()
Sea Level Pressure  
Sea Level Pressure 29.89 in    
Wind  
Wind Speed 1 mph (NNW)    
Max Wind Speed 8 mph    
Max Gust Speed -    
Visibility 5 miles    
Events Fog    
Averages and records for this station are not official NWS values.
T = Trace of Precipitation, MM = Missing Value Source: NWS Daily Summary

Daily Weather History Graph

Daily Weather History Graph

Search for Another Location

Airport or City:

Trip Planner

Search our weather history database for the weather conditions in past years. The results will help you decide how hot, cold, wet, or windy it might be!

Date:

Astronomy

Aug. 02, 2013 Rise Set
Actual Time 5:49 AM CDT 8:33 PM CDT
Civil Twilight 5:15 AM CDT 9:07 PM CDT
Nautical Twilight 4:31 AM CDT 9:51 PM CDT
Astronomical Twilight 3:40 AM CDT 10:41 PM CDT
Moon 2:08 AM CDT (8/2) 5:33 PM CDT (8/2)
Length of Visible Light 15h 52m
Length of Day
14h 43m
Waning Crescent, 15% of the Moon is Illuminated
Aug 2
Waning Crescent
Aug 6
New
Aug 14
First Quarter
Aug 20
Full
Aug 28
Last Quarter

Hourly Weather History & Observations

Time (CDT) Temp. Dew Point Humidity Pressure Visibility Wind Dir Wind Speed Gust Speed Precip Events Conditions
12:01 AM 53.6 °F 53.6 °F 100% 29.87 in 1.8 mi Calm Calm - N/A   Partly Cloudy
12:04 AM 53.6 °F 53.6 °F 100% 29.87 in 0.8 mi Calm Calm - N/A   Partly Cloudy
12:32 AM 51.8 °F 51.8 °F 100% 29.86 in 1.2 mi Calm Calm - N/A   Clear
12:35 AM 51.8 °F 51.8 °F 100% 29.86 in 4.0 mi Calm Calm - N/A   Clear
12:53 AM 52.0 °F 52.0 °F 100% 29.86 in 2.5 mi Calm Calm - N/A   Clear
12:58 AM 51.8 °F 50.0 °F 94% 29.85 in 1.0 mi Calm Calm - N/A   Mist
1:05 AM 53.6 °F 51.8 °F 94% 29.85 in 0.2 mi Calm Calm - N/A Fog Fog
1:14 AM 53.6 °F 51.8 °F 94% 29.86 in 1.0 mi Calm Calm - N/A   Clear
1:17 AM 53.6 °F 51.8 °F 94% 29.86 in 2.0 mi Calm Calm - N/A   Clear
1:27 AM 50.0 °F 48.2 °F 94% 29.85 in 9.0 mi Calm Calm - N/A   Clear
1:34 AM 51.8 °F 50.0 °F 94% 29.85 in 1.0 mi Calm Calm - N/A   Mist
1:41 AM 50.0 °F 50.0 °F 100% 29.85 in 0.2 mi Calm Calm - N/A Fog Fog
1:53 AM 55.9 °F 55.0 °F 97% 29.86 in 3.0 mi Variable 3.5 mph - N/A   Mostly Cloudy
2:53 AM 54.0 °F 53.1 °F 97% 29.85 in 10.0 mi Calm Calm - N/A   Clear
3:28 AM 51.8 °F 48.2 °F 88% 29.85 in 1.8 mi Calm Calm - N/A   Clear
3:36 AM 51.8 °F 50.0 °F 94% 29.85 in 1.0 mi Calm Calm - N/A   Clear
3:39 AM 51.8 °F 50.0 °F 94% 29.85 in 2.5 mi Calm Calm - N/A   Clear
3:46 AM 50.0 °F 50.0 °F 100% 29.85 in 4.0 mi Calm Calm - N/A   Clear
3:53 AM 50.0 °F 50.0 °F 100% 29.86 in 3.0 mi Calm Calm - N/A   Clear
4:38 AM 48.2 °F 46.4 °F 93% 29.87 in 1.5 mi Calm Calm - N/A   Clear
4:40 AM 48.2 °F 46.4 °F 93% 29.87 in 0.8 mi Calm Calm - N/A   Mist
4:53 AM 48.9 °F 48.0 °F 97% 29.87 in 2.5 mi Calm Calm - N/A   Partly Cloudy
5:00 AM 48.2 °F 46.4 °F 93% 29.87 in 8.0 mi Calm Calm - N/A   Partly Cloudy
5:17 AM 46.4 °F 46.4 °F 100% 29.87 in 1.5 mi Calm Calm - N/A   Scattered Clouds
5:21 AM 48.2 °F 46.4 °F 93% 29.87 in 0.8 mi Calm Calm - N/A   Mist
5:27 AM 48.2 °F 46.4 °F 93% 29.87 in 1.2 mi Calm Calm - N/A   Scattered Clouds
5:35 AM 46.4 °F 44.6 °F 93% 29.87 in 0.8 mi Calm Calm - N/A   Mist
5:41 AM 44.6 °F 42.8 °F 93% 29.87 in 1.2 mi Calm Calm - N/A   Scattered Clouds
5:43 AM 44.6 °F 42.8 °F 93% 29.87 in 3.0 mi Calm Calm - N/A   Scattered Clouds
5:48 AM 44.6 °F 44.6 °F 100% 29.87 in 2.5 mi Calm Calm - N/A   Mostly Cloudy
5:53 AM 45.0 °F 44.1 °F 97% 29.88 in 2.5 mi Calm Calm - N/A   Mostly Cloudy
6:00 AM 46.4 °F 44.6 °F 93% 29.88 in 1.2 mi Calm Calm - N/A   Mostly Cloudy
6:03 AM 46.4 °F 44.6 °F 93% 29.88 in 0.8 mi Calm Calm - N/A   Mist
6:53 AM 48.0 °F 48.0 °F 100% 29.89 in 0.2 mi Calm Calm - N/A Fog Fog
7:30 AM 51.8 °F 51.8 °F 100% 29.90 in 1.2 mi Calm Calm - N/A   Mostly Cloudy
7:33 AM 53.6 °F 51.8 °F 94% 29.90 in 3.0 mi Calm Calm - N/A   Mostly Cloudy
7:53 AM 55.0 °F 54.0 °F 96% 29.90 in 10.0 mi Calm Calm - N/A   Partly Cloudy
8:53 AM 64.9 °F 55.9 °F 73% 29.91 in 10.0 mi Variable 3.5 mph - N/A   Clear
9:53 AM 68.0 °F 53.1 °F 59% 29.91 in 10.0 mi Variable 3.5 mph - N/A   Clear
10:53 AM 70.0 °F 52.0 °F 53% 29.92 in 10.0 mi Variable 3.5 mph - N/A   Partly Cloudy
11:53 AM 71.1 °F 50.0 °F 47% 29.92 in 10.0 mi WNW 8.1 mph - N/A   Scattered Clouds
12:53 PM 73.0 °F 48.9 °F 42% 29.93 in 10.0 mi Variable 6.9 mph - N/A   Mostly Cloudy
1:53 PM 73.9 °F 48.9 °F 41% 29.93 in 10.0 mi Variable 4.6 mph - N/A   Scattered Clouds
2:53 PM 75.0 °F 48.0 °F 38% 29.93 in 10.0 mi Variable 5.8 mph - N/A   Mostly Cloudy
3:53 PM 73.9 °F 46.9 °F 38% 29.94 in 10.0 mi Variable 5.8 mph - N/A   Scattered Clouds
4:53 PM 73.9 °F 48.0 °F 40% 29.95 in 10.0 mi Variable 5.8 mph - N/A   Partly Cloudy
5:53 PM 73.0 °F 48.9 °F 42% 29.95 in 10.0 mi NNW 4.6 mph - N/A   Partly Cloudy
6:53 PM 71.1 °F 48.9 °F 45% 29.97 in 10.0 mi North 3.5 mph - N/A   Clear
7:53 PM 68.0 °F 50.0 °F 52% 29.97 in 10.0 mi Calm Calm - N/A   Clear
8:53 PM 57.9 °F 54.0 °F 87% 29.99 in 10.0 mi Calm Calm - N/A   Clear
9:53 PM 55.0 °F 53.1 °F 93% 30.01 in 10.0 mi Calm Calm - N/A   Mostly Cloudy
10:53 PM 52.0 °F 50.0 °F 93% 30.04 in 10.0 mi Calm Calm - N/A   Mostly Cloudy
11:53 PM 51.1 °F 48.9 °F 92% 30.05 in 10.0 mi Calm Calm - N/A   Scattered Clouds